Regional Weather Roundup
Issued by NWS

Home | Current Version | Previous Version | Text Only | Print | Product List | Glossary Off
Versions: 1 2 3 4 5 6 7 8 9 10 11 12 13 14 15 16 17 18 19 20 21 22 23 24 25 26 27 28 29 30 31 32 33 34 35 36 37 38 39 40 41 42 43 44 45 46 47 48 49 50

000
ASUS45 KTFX 182119
RWRMT
MONTANA HOURLY WEATHER ROUNDUP
NATIONAL WEATHER SERVICE GREAT FALLS MT
219 PM MST THU DEC 18 2014

NOTE: "FAIR" INDICATES FEW OR NO CLOUDS BELOW 12000 FEET WITH NO
SIGNIFICANT WEATHER AND/OR OBSTRUCTIONS TO VISIBILITY.

* THESE STATIONS ARE NOT UNDER NWS QUALITY CONTROL. THEY DO NOT
   REPORT WEATHER SUCH AS PRECIPITATION OR FOG.

MTZ001>007-043-182200-
WEST OF THE DIVIDE
CITY           SKY/WX    TMP DP  RH WIND       PRES   REMARKS
KALISPELL      LGT SNOW  34  30  85 CALM      29.98S VSB 3
MISSOULA       CLOUDY    34  27  76 W3        30.02F
BUTTE          CLOUDY    25  19  78 CALM      29.99F
MULLAN PASS    FOG       30  27  89 SW3       29.92S VSB 1 1/2
* ANACONDA     PTSUNNY   36  23  59 S15G22     N/A   WCI  27
* ESSEX        N/A       33  30  89 N/A        N/A
* EUREKA APT   PTSUNNY   34  30  85 CALM      29.95F
* HAMILTON APT CLOUDY    43  27  53 S14       29.97F
* LINCOLN      N/A       31  28  89 SE1        N/A
* LOOKOUT PASS N/A       34  31  89 SE4G9      N/A
* POLSON       N/A       35  34  96 N/A        N/A
* RONAN APT    CLOUDY    34  32  92 N/A        N/A
* SEELEY LAKE  N/A       32  29  89 N/A        N/A
* THOMP F APT  CLOUDY    25  22  88 SE4        N/A
$$

MTZ008-052>055-182200-
SOUTHWEST MONTANA
CITY           SKY/WX    TMP DP  RH WIND       PRES   REMARKS
BOZEMAN        CLOUDY    32  19  59 N3        30.00F
DILLON         PTSUNNY   30  19  64 S5        30.00F WCI  25
* W YELLOWSTON PTCLDY    27  23  85 SW3        N/A
* THREE FORKS  PTSUNNY   30   0  27 N/A        N/A
* BOULDER HILL N/A       30  14  51 SW11G17    N/A   WCI  21
* MONIDA PASS  N/A       23  22  96 SE14G21    N/A   WCI  10
* RAYNOLDS PAS N/A       25   9  50 S11        N/A   WCI  14
* WHITEHALL    N/A       34  22  61 W6         N/A   WCI  29
* WISE RIVER   N/A       21  14  74 NW2        N/A
$$

MTZ009>010-012-014-046-048-049-054-182200-
EAST SLOPES AND CENTRAL MONTANA
CITY           SKY/WX    TMP DP  RH WIND       PRES   REMARKS
CUT BANK       PTSUNNY   37  28  70 W14       29.84S WCI  28
GREAT FALLS    PTSUNNY   37  25  62 SW16      29.89S WCI  28
HELENA         PTSUNNY   30  25  82 N3        29.98F
MALMSTROM AFB  PTSUNNY   37  28  70 SW14      29.91F WCI  28
* CONRAD       PTCLDY    37  34  89 W5         N/A   WCI  33
* DEARBORN     N/A       40  25  55 S14G21     N/A   WCI  32
* EAST GLACIER N/A       38  24  57 W22        N/A   WCI  27
* MONARCH      N/A       35  16  46 SW19G28    N/A   WCI  24
* PENDROY      N/A       39  24  55 W14        N/A   WCI  31
* ROGERS PASS  N/A       30  25  82 SE13G20    N/A   WCI  20
* SWEET GRASS  N/A       36  31  82 W12        N/A   WCI  28
* WHITE SULPH  N/A       36  21  54 S3G21      N/A
$$

MTZ011-013-016-021-035-040-045-047-050-051-182200-
NORTH CENTRAL MONTANA
CITY           SKY/WX    TMP DP  RH WIND       PRES   REMARKS
HAVRE          PTCLDY    37  30  76 W10       29.87F WCI  30
LEWISTOWN      CLOUDY    41  27  58 W8        29.89S
* N BAR RANCH  SUNNY     45  19  35 W10G20    29.88F
* CHINOOK      PTCLDY    23  21  92 CALM      29.90F VSB 1/2
* MALTA APT    SUNNY     23  18  81 N/A        N/A
* CHESTER      N/A       33  32  96 SW2        N/A
* DENTON       N/A       41  22  47 W12        N/A
* GEYSER       N/A       41  22  47 NW6        N/A
* JUDITH GAP   N/A       39  20  46 SW10G16    N/A   WCI  32
* LOMA         N/A       35  32  89 SE1        N/A
$$

MTZ017>020-022>027-061-062-182200-
NORTHEAST MONTANA
CITY           SKY/WX    TMP DP  RH WIND       PRES   REMARKS
GLASGOW        SUNNY     32  25  75 CALM      29.90F
GLENDIVE       SUNNY     37  27  67 S10       29.93S WCI  30
JORDAN         SUNNY     45  27  49 SW10      29.89S
SIDNEY         CLOUDY    30  27  89 SE5       29.96S WCI  25
WOLF POINT     PTCLDY    32  27  82 NW3       29.93R
* BEAVER HILL  N/A       35  28  76 SW10G16    N/A   WCI  27
* CIRCLE       N/A       38  30  73 SW3        N/A
* LINDSAY DVD  N/A      N/A N/A N/A N/A        N/A
* NAVAJO       N/A       26  25  96 SW3        N/A
* PLENTYWOOD A PTCLDY    25  25 100 SW6       29.90F WCI  18
* POPLAR APT   SUNNY     34  27  76 CALM      29.92F
* SACO         N/A       27  23  85 W4         N/A
$$

MTZ028>042-056>058-182200-
SOUTHCENTRAL AND SOUTHEAST MONTANA
CITY           SKY/WX    TMP DP  RH WIND       PRES   REMARKS
BAKER          SUNNY     36  28  73 W9        29.93S WCI  29
BILLINGS       PTCLDY    36  23  59 SW23G30   29.94F WCI  24
LIVINGSTON     PTCLDY    39  19  45 SW28G43   29.93F WCI  27
MILES CITY     PTCLDY    37  27  67 SW8       29.93F WCI  31
* BIG TIMBER A PTCLDY    43  18  37 W24G32    29.92F
* FORSYTH APT  PTCLDY    39  27  62 CALM      29.93F
* LAUREL APT   SUNNY     37  18  46 S13G18     N/A   WCI  29
* ROUNDUP APT  PTCLDY    46  19  34 SW16G23    N/A
* ALZADA       N/A       37  29  73 SW10       N/A   WCI  30
* HYSHAM       N/A       36  18  48 W5G11      N/A   WCI  32
* LAME DEER    N/A       38  20  48 W9         N/A   WCI  32
* REED POINT   N/A       35  25  67 E1         N/A
* ROSCOE HILL  N/A       42   6  22 S9G19      N/A
$$

REGIONAL REPORTS...DAKOTAS
CITY           SKY/WX    TMP DP  RH WIND       PRES   REMARKS
WILLISTON      CLOUDY    27  21  78 SW5       29.95F WCI  21
DICKINSON      CLOUDY    30  27  89 W5        29.92S WCI  25
BEACH          SUNNY     34  32  92 SW7       29.93S WCI  28
CROSBY         CLOUDY    25  25 100 SW8       29.95S WCI  16
TIOGA          CLOUDY    23  23 100 SW8       29.96F WCI  14
WATFORD CITY   CLOUDY    27  25  92 SW7       29.93S WCI  19
BISMARCK       CLOUDY    25  21  85 S6        30.03F WCI  18
GRAND FORKS    CLOUDY    18  12  77 S14       30.18F WCI   4
FARGO          CLOUDY    19  14  81 S14       30.19F WCI   5
BUFFALO SD     SUNNY     41  28  60 W12       29.87S
RAPID CITY     SUNNY     39  28  65 SE7       29.96S WCI  34
$$

REGIONAL REPORTS...WYOMING/IDAHO/WASHINGTON
CITY           SKY/WX    TMP DP  RH WIND       PRES   REMARKS
GILLETTE       SUNNY     37  21  52 SW10      29.96F WCI  30
SHERIDAN       SUNNY     37  23  57 S7        29.94F WCI  32
CODY           SUNNY     36  19  50 W6        29.97F WCI  31
YELLOWSTONE LA PTCLDY    25  18  75 VRB6      30.05S WCI  18
SALMON         CLOUDY    28  18  66 CALM      30.07F
MULLAN PASS    FOG       30  27  89 SW3       29.92S VSB 1 1/2
SAND POINT     FOG       32  32 100 CALM      29.99F VSB 3
SPOKANE        CLOUDY    41  36  82 S5        29.97S
$$

REGIONAL REPORTS...ALBERTA
CITY           SKY/WX    TMP DP  RH WIND       PRES   REMARKS
CALGARY        PTSUNNY   36  21  54 SW7       29.77F WCI  30
LETHBRIDGE     PTCLDY    41  28  60 W30       29.80F
MEDICINE HAT   PTSUNNY   19  18  96 NE3       29.84F
EDMONTON       SUNNY     19  18  96 E6        29.81F WCI  11
WATERTON GATE  N/A       41  27  58 SW16G22    N/A
CARDSTON       N/A       39  32  76 W8         N/A   WCI  33
MILK RIVER     N/A       36  28  73 N2         N/A
$$

REGIONAL REPORTS...SASKATCHEWAN
CITY           SKY/WX    TMP DP  RH WIND       PRES   REMARKS
SWIFT CURRENT  SUNNY     28  28 100 SW12      29.82S WCI  18
REGINA         CLOUDY    23  23 100 SE12      29.90S WCI  11
VAL MARIE      N/A       25  25 100 CALM       N/A
ASSINIBOIA     N/A       27  25  92 W9         N/A   WCI  18
CORONACH       N/A       27  27 100 SW7        N/A   WCI  19

$$



USA.gov is the U.S. government's official web portal to all federal, state and local government web resources and services.